This demonstration page uses our WeatherBlox Daily Observations layout. Learn more.

Left ArrowRight Arrow

Hourly Observations for December 4, 2017

Temp ( °F °C ) Dew Point ( °F °C ) Humidity (%) Winds ( mph kmh ) Pressure ( in mb ) Visibility ( mi km ) Precip ( " mm )
12:15 am 00:15 Clear 34 1 32 undefined 93 93 N N/A 30.33 1027 10 16 N/A
12:35 am 00:35 Clear 32 undefined 32 undefined 100 100 N N/A 30.33 1027 10 16 N/A
12:55 am 00:55 Clear 32 undefined 32 undefined 100 100 N N/A 30.33 1027 10 16 N/A
1:15 am 01:15 Clear 32 undefined 32 undefined 100 100 N N/A 30.36 1028 10 16 N/A
1:35 am 01:35 Clear 32 undefined 32 undefined 100 100 N N/A 30.36 1028 10 16 N/A
1:55 am 01:55 Clear 30 -1 30 -1 100 100 N N/A 30.36 1028 10 16 N/A
2:15 am 02:15 Clear 32 undefined 32 undefined 100 100 N N/A 30.36 1028 10 16 N/A
2:35 am 02:35 Clear 32 undefined 32 undefined 100 100 E 5 7 30.36 1028 10 16 N/A
2:55 am 02:55 Clear 32 undefined 32 undefined 100 100 N N/A 30.36 1028 10 16 N/A
3:15 am 03:15 Clear 30 -1 30 -1 100 100 N N/A 30.36 1028 10 16 N/A
3:35 am 03:35 Clear 30 -1 30 -1 100 100 NW 5 7 30.36 1028 10 16 N/A
3:55 am 03:55 Clear 32 undefined 32 undefined 100 100 NW 3 6 30.36 1028 10 16 N/A
4:15 am 04:15 Clear 32 undefined 32 undefined 100 100 N N/A 30.36 1028 10 16 N/A
4:35 am 04:35 Clear 32 undefined 32 undefined 100 100 N N/A 30.36 1028 10 16 N/A
4:55 am 04:55 Clear 30 -1 30 -1 100 100 N N/A 30.39 1029 10 16 N/A
5:15 am 05:15 Clear 30 -1 30 -1 100 100 N N/A 30.39 1029 10 16 N/A
5:35 am 05:35 Clear 30 -1 30 -1 100 100 N N/A 30.39 1029 10 16 N/A
5:55 am 05:55 Clear 30 -1 30 -1 100 100 N N/A 30.39 1029 10 16 N/A
6:15 am 06:15 Clear 32 undefined 32 undefined 100 100 N N/A 30.39 1029 10 16 N/A
6:35 am 06:35 Clear 32 undefined 30 -1 93 93 N N/A 30.42 1030 10 16 N/A
6:55 am 06:55 Clear 30 -1 30 -1 100 100 N N/A 30.42 1030 10 16 N/A
7:15 am 07:15 Sunny 32 undefined 32 undefined 100 100 undefined N/A 30.42 1030 10 16 N/A
7:35 am 07:35 Sunny 30 -1 30 -1 100 100 N N/A 30.42 1030 10 16 N/A
7:55 am 07:55 Sunny 32 undefined 32 undefined 100 100 N N/A 30.42 1030 10 16 N/A
8:15 am 08:15 Sunny 32 undefined 32 undefined 100 100 N N/A 30.45 1031 10 16 N/A
8:35 am 08:35 Sunny 32 undefined 32 undefined 100 100 N N/A 30.45 1031 10 16 N/A
8:55 am 08:55 Sunny 34 1 34 1 100 100 N N/A 30.45 1031 10 16 N/A
9:15 am 09:15 Sunny 36 2 36 2 100 100 N N/A 30.45 1031 10 16 N/A
9:35 am 09:35 Sunny 39 4 36 2 87 87 N N/A 30.45 1031 10 16 N/A
9:55 am 09:55 Sunny 41 5 36 2 81 81 N N/A 30.48 1032 10 16 N/A
10:15 am 10:15 Sunny 41 5 36 2 81 81 N N/A 30.48 1032 10 16 N/A
10:35 am 10:35 Sunny 41 5 36 2 81 81 N N/A 30.48 1032 10 16 N/A
10:55 am 10:55 Sunny 43 6 37 3 81 81 N N/A 30.45 1031 10 16 N/A
11:15 am 11:15 Sunny 45 7 37 3 76 76 N N/A 30.45 1031 10 16 N/A
11:35 am 11:35 Sunny 46 8 37 3 71 71 S 5 7 30.45 1031 10 16 N/A
11:55 am 11:55 Sunny 50 10 37 3 62 62 S 5 7 30.45 1031 10 16 N/A
12:15 pm 12:15 Sunny 52 11 37 3 58 58 SSE 9 15 30.42 1030 10 16 N/A
12:35 pm 12:35 Sunny 52 11 37 3 58 58 S 8 13 30.42 1030 10 16 N/A
12:55 pm 12:55 Sunny 54 12 37 3 54 54 S 9 15 30.42 1030 10 16 N/A
1:15 pm 13:15 Sunny 54 12 36 2 51 51 SSE 14 22 30.39 1029 10 16 N/A
1:35 pm 13:35 Sunny 54 12 36 2 51 51 S 14 22 30.39 1029 10 16 N/A
1:55 pm 13:55 Sunny 55 13 36 2 47 47 S 12 19 30.33 1027 10 16 N/A
2:15 pm 14:15 Sunny 55 13 37 3 51 51 S 12 19 30.33 1027 10 16 N/A
2:35 pm 14:35 Sunny 55 13 36 2 47 47 S 10 17 30.33 1027 10 16 N/A
2:55 pm 14:55 Sunny 55 13 34 1 44 44 SSE 13 20 30.33 1027 10 16 N/A
3:15 pm 15:15 Sunny 55 13 34 1 44 44 S 14 22 30.33 1027 10 16 N/A
3:35 pm 15:35 Sunny 55 13 34 1 44 44 SSE 8 13 30.33 1027 10 16 N/A
3:55 pm 15:55 Sunny 54 12 36 2 51 51 SSE 7 11 30.36 1028 10 16 N/A
4:15 pm 16:15 Sunny 54 12 36 2 51 51 S 10 17 30.36 1028 10 16 N/A
4:35 pm 16:35 Sunny 54 12 36 2 51 51 S 13 20 30.36 1028 10 16 N/A
4:55 pm 16:55 Clear 54 12 34 1 47 47 S 12 19 30.36 1028 10 16 N/A
5:10 pm 17:10 Clear 52 11 34 1 50 50 S 9 15 30.36 1028 10 16 N/A
5:35 pm 17:35 Clear 52 11 34 1 50 50 S 12 19 30.36 1028 10 16 N/A
5:55 pm 17:55 Clear 52 11 36 2 54 54 SSE 7 11 30.36 1028 10 16 N/A
6:15 pm 18:15 Clear 52 11 36 2 54 54 SSE 8 13 30.36 1028 10 16 N/A
6:35 pm 18:35 Clear 50 10 36 2 58 58 SSE 7 11 30.36 1028 10 16 N/A
6:55 pm 18:55 Clear 50 10 36 2 58 58 SSE 8 13 30.36 1028 10 16 N/A
7:15 pm 19:15 Clear 50 10 37 3 62 62 SSE 5 7 30.39 1029 10 16 N/A
7:35 pm 19:35 Clear 50 10 36 2 58 58 S 8 13 30.36 1028 10 16 N/A
7:55 pm 19:55 Clear 50 10 37 3 62 62 SSE 3 6 30.36 1028 10 16 N/A
8:15 pm 20:15 Clear 48 9 37 3 66 66 SSE 5 7 30.36 1028 10 16 N/A
8:35 pm 20:35 Clear 48 9 39 4 71 71 SSE 5 7 30.36 1028 10 16 N/A
8:55 pm 20:55 Clear 48 9 39 4 71 71 SSE 6 9 30.36 1028 10 16 N/A
9:15 pm 21:15 Clear 48 9 41 5 76 76 SSE 5 7 30.36 1028 10 16 N/A
9:35 pm 21:35 Clear 48 9 41 5 76 76 SSE 7 11 30.36 1028 10 16 N/A
9:55 pm 21:55 Clear 46 8 41 5 82 82 S 8 13 30.36 1028 10 16 N/A
10:15 pm 22:15 Clear 46 8 41 5 82 82 S 10 17 30.33 1027 10 16 N/A
10:35 pm 22:35 Clear 46 8 43 6 87 87 S 12 19 30.33 1027 10 16 N/A
10:55 pm 22:55 Clear 46 8 43 6 87 87 S 12 19 30.33 1027 10 16 N/A
11:15 pm 23:15 Clear 45 7 43 6 93 93 S 8 13 30.33 1027 10 16 N/A
11:35 pm 23:35 Clear 45 7 43 6 93 93 S 7 11 30.33 1027 7 11 N/A
11:55 pm 23:55 Clear 45 7 43 6 93 93 SSW 5 7 30.33 1027 7 11 N/A

Powered by AerisWeather